Regional Weather Roundup
Issued by NWS

Home | Current Version | Previous Version | Graphics & Text | Print | Product List | Glossary On
Versions: 1 2 3 4 5 6 7 8 9 10 11 12 13 14 15 16 17 18 19 20 21 22 23 24 25 26 27 28 29 30 31 32 33 34 35 36 37 38 39 40 41 42 43 44 45 46 47 48 49 50
000
ASUS45 KABQ 241101
RWRNM
WEATHER ROUNDUP FOR NEW MEXICO
NATIONAL WEATHER SERVICE ALBUQUERQUE NM
500 AM MDT THU APR 24 2014

NOTE: "FAIR" MEANS FEW OR NO CLOUDS BELOW 12,000 FEET AGL WITH NO
       SIGNIFICANT WEATHER OR OBSTRUCTIONS TO VISION.

      THIS PRODUCT IS RELEASED AS TWO VERSIONS.  ONE VERSION NEAR
      THE TOP OF THE HOUR CONTAINING PRELIMINARY DATA FROM ALBUQUERQUE
      AND OTHER STATIONS.  A FINAL VERSION WITH ADDITIONAL DATA IS
      ISSUED ABOUT 10 MINUTES AFTER THE HOUR.

NMZ501-503-504-510>518-241200-
NORTHWEST PLATEAU/NORTHCENTRAL MOUNTAINS

CITY           SKY/WX    TMP DP  RH WIND       PRES   REMARKS
FARMINGTON     CLEAR     37  10  32 CALM      30.06R
SANTA FE       CLEAR     34   9  35 N9        30.04S WCI  27
TAOS           CLEAR     28  12  50 NW7       30.09R WCI  21

$$
NMZ402-403-502-505>509-241200-
WESTCENTRAL MOUNTAINS/SOUTHWEST MOUNTAINS

CITY           SKY/WX    TMP DP  RH WIND       PRES   REMARKS
GALLUP         MOCLDY    23   4  44 NE6       30.12R WCI  16
SILVER CITY    CLEAR     37  12  35 NW12      30.07R WCI  30

$$
NMZ407-409-411-412-241200-
SOUTHERN DESERTS

CITY           SKY/WX    TMP DP  RH WIND       PRES   REMARKS
DEMING         CLEAR     48  12  23 N5        30.01R
T OR C         CLEAR     51  11  20 NW8       30.02R

$$
NMZ519>523-241200-
CENTRAL VALLEYS/CENTRAL HIGHLANDS

CITY           SKY/WX    TMP DP  RH WIND       PRES   REMARKS
ALBUQUERQUE    CLEAR     47  12  24 NW8       30.07R
CLINES CORNERS CLEAR     36  11  35 NW17      30.00R WCI  26
BELEN          FAIR      39  10  31 N9        30.07R WCI  33
SOCORRO        NOT AVBL

$$
NMZ524>526-539-540-241200-
SOUTHCENTRAL MOUNTAINS

CITY           SKY/WX    TMP DP  RH WIND       PRES   REMARKS
RUIDOSO        NOT AVBL

$$
NMZ527>531-241200-
NORTHEAST HIGHLANDS/NORTHEAST PLAINS

CITY           SKY/WX    TMP DP  RH WIND       PRES   REMARKS
LAS VEGAS      CLEAR     34  12  40 NE9       30.01R WCI  27
RATON          CLEAR     38  29  70 N16       30.02R WCI  29
CLAYTON        MOCLDY    41  35  79 N14G25    29.98R

$$
NMZ532>537-241200-
EASTCENTRAL PLAINS

CITY           SKY/WX    TMP DP  RH WIND       PRES   REMARKS
TUCUMCARI      CLOUDY    52  33  48 N17       29.95R HAZE
CANNON AFB     NOT AVBL
CLOVIS AIRPORT CLOUDY    50  30  46 N18G24    29.96R

$$
NMZ028-029-538-241200-
SOUTHEAST PLAINS

CITY           SKY/WX    TMP DP  RH WIND       PRES   REMARKS
ROSWELL        CLEAR     60  12  15 N13       29.94R
CARLSBAD       CLEAR     52  29  41 W7        29.90R


$$



USA.gov is the U.S. government's official web portal to all federal, state and local government web resources and services.